TimeCST,TemperatureF,Dew PointF,Humidity,Sea Level PressureIn,VisibilityMPH,Wind Direction,Wind SpeedMPH,Gust SpeedMPH,PrecipitationIn,Events,Conditions,WindDirDegrees,DateUTC
12:10 AM,22.8,19.0,85,29.88,7.0,NNW,20.7,-,N/A,,Overcast,340,2011-01-18 06:10:00
12:30 AM,21.2,16.7,83,29.88,10.0,NNW,21.9,28.8,N/A,,Overcast,340,2011-01-18 06:30:00
12:50 AM,20.8,16.0,81,29.88,10.0,North,19.6,-,N/A,,Overcast,350,2011-01-18 06:50:00
1:10 AM,21.2,15.8,80,29.89,10.0,North,20.7,24.2,N/A,,Overcast,350,2011-01-18 07:10:00
1:30 AM,20.1,15.1,81,29.90,10.0,NNW,17.3,25.3,N/A,,Overcast,340,2011-01-18 07:30:00
1:50 AM,19.2,13.5,78,29.91,10.0,North,23.0,26.5,N/A,,Overcast,350,2011-01-18 07:50:00
2:10 AM,19.0,14.0,81,29.91,10.0,North,18.4,-,N/A,,Overcast,350,2011-01-18 08:10:00
2:30 AM,18.5,14.0,83,29.92,10.0,NNW,18.4,21.9,N/A,,Overcast,340,2011-01-18 08:30:00
2:50 AM,17.6,12.2,79,29.93,10.0,North,20.7,27.6,N/A,,Overcast,350,2011-01-18 08:50:00
3:10 AM,17.6,12.6,81,29.94,10.0,North,20.7,25.3,N/A,,Overcast,350,2011-01-18 09:10:00
3:30 AM,17.4,12.6,81,29.95,10.0,North,16.1,-,N/A,,Overcast,350,2011-01-18 09:30:00
3:50 AM,17.1,12.0,81,29.96,10.0,North,19.6,-,N/A,,Overcast,350,2011-01-18 09:50:00
4:10 AM,17.6,12.2,79,29.96,10.0,NNW,16.1,-,N/A,,Overcast,340,2011-01-18 10:10:00
4:30 AM,16.7,11.8,81,29.96,10.0,NNW,17.3,-,N/A,,Overcast,340,2011-01-18 10:30:00
4:50 AM,16.2,11.3,81,29.97,10.0,North,18.4,-,N/A,,Overcast,350,2011-01-18 10:50:00
5:10 AM,16.3,11.3,81,29.98,10.0,North,16.1,-,N/A,,Overcast,350,2011-01-18 11:10:00
5:30 AM,15.6,10.4,80,29.99,10.0,NNW,18.4,-,N/A,,Overcast,340,2011-01-18 11:30:00
5:50 AM,15.6,10.2,79,30.00,10.0,North,17.3,-,N/A,,Overcast,350,2011-01-18 11:50:00
6:10 AM,15.6,10.4,80,30.00,10.0,North,15.0,-,N/A,,Overcast,350,2011-01-18 12:10:00
6:30 AM,15.6,10.2,79,30.01,10.0,North,12.7,-,N/A,,Overcast,350,2011-01-18 12:30:00
6:50 AM,15.4,10.2,80,30.03,10.0,North,15.0,20.7,N/A,,Overcast,350,2011-01-18 12:50:00
7:10 AM,15.4,9.9,79,30.04,10.0,North,12.7,-,N/A,,Overcast,350,2011-01-18 13:10:00
7:30 AM,15.4,9.7,78,30.05,10.0,NNW,13.8,-,N/A,,Overcast,340,2011-01-18 13:30:00
7:50 AM,14.9,9.1,78,30.06,10.0,North,17.3,-,N/A,,Overcast,350,2011-01-18 13:50:00
8:10 AM,14.7,9.7,80,30.05,10.0,North,15.0,-,N/A,,Overcast,350,2011-01-18 14:10:00
8:30 AM,14.5,9.5,80,30.06,10.0,North,16.1,-,N/A,,Overcast,350,2011-01-18 14:30:00
8:50 AM,14.7,9.0,78,30.06,10.0,North,17.3,-,N/A,,Overcast,350,2011-01-18 14:50:00
9:10 AM,14.9,8.8,77,30.08,10.0,North,15.0,-,N/A,,Overcast,360,2011-01-18 15:10:00
9:30 AM,14.9,8.1,74,30.07,10.0,NNW,10.4,-,N/A,,Overcast,340,2011-01-18 15:30:00
9:50 AM,15.4,8.2,73,30.08,10.0,North,10.4,-,N/A,,Overcast,360,2011-01-18 15:50:00
10:10 AM,15.3,7.7,72,30.08,10.0,North,8.1,-,N/A,,Overcast,360,2011-01-18 16:10:00
10:30 AM,16.2,8.2,71,30.08,10.0,NNE,10.4,-,N/A,,Overcast,20,2011-01-18 16:30:00
10:50 AM,16.7,8.8,71,30.08,10.0,North,10.4,-,N/A,,Overcast,10,2011-01-18 16:50:00
11:10 AM,17.6,8.6,68,30.08,10.0,North,8.1,-,N/A,,Mostly Cloudy,350,2011-01-18 17:10:00
11:30 AM,17.6,8.6,68,30.08,10.0,North,9.2,-,N/A,,Scattered Clouds,350,2011-01-18 17:30:00
11:50 AM,17.6,10.4,73,30.08,10.0,North,8.1,-,N/A,,Mostly Cloudy,350,2011-01-18 17:50:00
12:10 PM,18.3,9.3,68,30.07,10.0,North,6.9,-,N/A,,Overcast,350,2011-01-18 18:10:00
12:30 PM,18.1,9.3,68,30.06,10.0,North,9.2,-,N/A,,Mostly Cloudy,360,2011-01-18 18:30:00
12:50 PM,18.5,9.3,67,30.05,10.0,NW,3.5,-,N/A,,Mostly Cloudy,320,2011-01-18 18:50:00
1:10 PM,18.9,9.3,66,30.05,10.0,NNW,5.8,-,N/A,,Mostly Cloudy,330,2011-01-18 19:10:00
1:30 PM,19.4,10.4,68,30.04,10.0,Calm,Calm,-,N/A,,Overcast,0,2011-01-18 19:30:00
1:50 PM,19.8,9.9,65,30.04,10.0,NNW,5.8,-,N/A,,Overcast,340,2011-01-18 19:50:00
2:10 PM,19.9,10.4,67,30.04,10.0,North,4.6,-,N/A,,Overcast,10,2011-01-18 20:10:00
2:30 PM,20.3,11.7,69,30.04,10.0,North,8.1,-,N/A,,Overcast,350,2011-01-18 20:30:00
2:50 PM,20.3,11.7,69,30.04,10.0,North,6.9,-,N/A,,Overcast,350,2011-01-18 20:50:00
3:10 PM,19.9,10.8,68,30.04,10.0,NNW,4.6,-,N/A,,Overcast,340,2011-01-18 21:10:00
3:30 PM,19.4,10.4,68,30.04,10.0,North,4.6,-,N/A,,Overcast,360,2011-01-18 21:30:00
3:50 PM,19.6,11.8,72,30.05,7.0,North,5.8,-,N/A,,Overcast,10,2011-01-18 21:50:00
4:10 PM,19.4,12.7,75,30.05,4.0,North,6.9,-,N/A,Snow,Light Snow,360,2011-01-18 22:10:00
4:30 PM,18.7,13.6,81,30.06,7.0,North,8.1,-,N/A,Snow,Light Snow,360,2011-01-18 22:30:00
4:50 PM,18.5,14.7,85,30.08,1.5,North,6.9,-,N/A,Snow,Light Snow,10,2011-01-18 22:50:00
5:10 PM,18.5,15.4,88,30.08,3.0,North,6.9,-,N/A,Snow,Light Snow,360,2011-01-18 23:10:00
5:30 PM,18.3,14.0,83,30.09,10.0,North,5.8,-,N/A,,Overcast,10,2011-01-18 23:30:00
5:50 PM,18.1,13.5,82,30.08,10.0,North,5.8,-,N/A,,Overcast,360,2011-01-18 23:50:00
6:10 PM,18.0,12.9,81,30.09,10.0,North,4.6,-,N/A,,Overcast,10,2011-01-19 00:10:00
6:30 PM,18.1,12.9,80,30.09,10.0,NNE,4.6,-,N/A,,Overcast,20,2011-01-19 00:30:00
6:50 PM,18.0,13.1,81,30.11,10.0,North,5.8,-,N/A,,Overcast,10,2011-01-19 00:50:00
7:10 PM,17.4,12.9,83,30.12,10.0,NNE,8.1,-,N/A,,Overcast,20,2011-01-19 01:10:00
7:30 PM,16.7,13.1,86,30.11,10.0,NNE,5.8,-,N/A,,Overcast,30,2011-01-19 01:30:00
7:50 PM,16.3,12.7,86,30.12,10.0,NNE,6.9,-,N/A,,Overcast,20,2011-01-19 01:50:00
8:10 PM,16.2,11.8,83,30.14,10.0,North,11.5,-,N/A,,Overcast,350,2011-01-19 02:10:00
8:30 PM,15.8,12.2,86,30.12,10.0,North,9.2,-,N/A,,Overcast,10,2011-01-19 02:30:00
8:50 PM,15.8,11.3,82,30.12,10.0,North,9.2,-,N/A,,Overcast,10,2011-01-19 02:50:00
9:10 PM,15.3,10.8,82,30.12,10.0,NNE,9.2,-,N/A,,Overcast,30,2011-01-19 03:10:00
9:30 PM,14.9,10.2,82,30.12,10.0,NE,9.2,-,N/A,,Overcast,40,2011-01-19 03:30:00
9:50 PM,14.9,10.2,82,30.12,10.0,NNE,6.9,-,N/A,,Overcast,30,2011-01-19 03:50:00
10:10 PM,14.9,10.0,81,30.12,10.0,NE,6.9,-,N/A,,Overcast,40,2011-01-19 04:10:00
10:30 PM,14.0,10.4,86,30.12,10.0,NNE,6.9,-,N/A,,Overcast,30,2011-01-19 04:30:00
10:50 PM,14.9,9.9,80,30.13,10.0,North,9.2,-,N/A,,Overcast,10,2011-01-19 04:50:00
11:10 PM,14.9,10.4,82,30.14,10.0,North,6.9,-,N/A,,Overcast,10,2011-01-19 05:10:00
11:30 PM,14.2,9.1,80,30.12,10.0,North,9.2,-,N/A,,Overcast,10,2011-01-19 05:30:00
11:50 PM,14.2,9.3,81,30.13,10.0,North,6.9,-,N/A,,Overcast,360,2011-01-19 05:50:00